MIDDLE PEAK RAWS NEAR KENTFIELD 2SW HADS current weather conditions

sailwx.info

Wind from 343 at 5 knots gusting 11

Air temperature 7.8° C
Dewpoint 5.2° C

Last reported at 2017-Mar-25 16:36 UTC.
Time now 2017-Mar-25 17:40 UTC

Location: N 37°56' W 122°35'.
View on Google Maps.

See reports from other nearby stations

  
Tides and Currents Weather Stations Pressure Air Temp Water Temp Dewpoint Dewpoint Depression Visibility Wind Speed Wind Dir Waves Ship Positions
date/time (UTC)wind fromknots sea level pressurealtimeterstation pressurevisibilityair tempwater tempwave heightnotes
2017-Mar-25 16:36 343 5 gusting 11 7.8
2017-Mar-25 15:36 336 9 gusting 15 6.7
2017-Mar-25 14:36 331 10 gusting 18 5.6
2017-Mar-25 13:36 333 11 gusting 24 5.6
2017-Mar-25 12:36 332 13 gusting 21 6.1
2017-Mar-25 11:36 318 12 gusting 17 6.1
2017-Mar-25 10:36 314 10 gusting 16 5.6
2017-Mar-25 09:36 303 8 gusting 12 5.6
2017-Mar-25 08:36 303 6 gusting 8 6.1
2017-Mar-25 07:36 301 4 gusting 5 6.7
2017-Mar-25 06:36 147 1 gusting 4 7.2
2017-Mar-25 05:36 073 6.7
2017-Mar-25 04:36 052 1 gusting 4 6.7
2017-Mar-25 03:36 305 3 gusting 4 6.7
2017-Mar-25 02:36 319 3 gusting 6 6.7
2017-Mar-25 01:36 296 5 gusting 8 7.2
2017-Mar-25 00:36 292 6 gusting 9 7.8
2017-Mar-24 23:36 287 5 gusting 10 8.3
2017-Mar-24 22:36 230 5 gusting 13 8.3
2017-Mar-24 21:36 208 6 gusting 13 7.8
2017-Mar-24 20:36 210 6 gusting 18 7.8
2017-Mar-24 19:36 158 13 gusting 27 8.3
2017-Mar-24 18:36 149 14 gusting 29 7.8
2017-Mar-24 17:36 154 17 gusting 32 7.8
2017-Mar-24 16:36 140 15 gusting 26 6.7
2017-Mar-24 15:36 140 16 gusting 25 6.7
2017-Mar-24 14:36 137 16 gusting 29 6.1
2017-Mar-24 13:36 142 13 gusting 34 6.1
2017-Mar-24 12:36 136 17 gusting 25 6.1
2017-Mar-24 11:36 138 13 gusting 23 6.1
2017-Mar-24 10:36 141 10 gusting 19 6.1
2017-Mar-24 09:36 146 11 gusting 21 6.1
2017-Mar-24 08:36 147 10 gusting 18 5.6
2017-Mar-24 07:36 148 11 gusting 18 5.6
2017-Mar-24 06:36 141 10 gusting 18 5.6
2017-Mar-24 05:36 147 8 gusting 15 5.6
2017-Mar-24 04:36 174 6 gusting 11 5.6
2017-Mar-24 03:36 207 6 gusting 13 5.6
2017-Mar-24 02:36 209 6 gusting 13 6.1
2017-Mar-24 01:36 263 6 gusting 22 6.1
2017-Mar-24 00:36 269 15 gusting 21 5.6
2017-Mar-23 23:36 224 6 gusting 13 8.3
2017-Mar-23 22:36 259 5 gusting 10 11.7
2017-Mar-23 21:36 308 4 gusting 9 11.1
2017-Mar-23 20:36 316 6 gusting 13 10.6
2017-Mar-23 19:36 321 5 gusting 9 11.1
2017-Mar-23 18:36 345 3 gusting 6 9.4
2017-Mar-23 17:36 347 1 gusting 10 10.0